DateTimeUTC,F1_A11,F1_S11,BsB_S11,BsG_S11,BsR_S11,BbsB_S11,BbsG_S11,BbsR_S11,BaB_A11,BaG_A11,BaR_A11,Tu_S11,T_S11,Uu_S11,U_S11,P_S11,T1_A11
2021-02-17T02:00:00Z,00000200,21000000,,,,,,,-000.26,-000.31,-000.43,16.8,23.5,,00.0,0632.9,31.0
2021-02-17T02:01:00Z,00000200,21000000,,,,,,,-000.21,-000.15,-000.05,16.8,23.5,,00.0,0632.9,31.0
2021-02-17T02:02:00Z,00000200,21000000,,,,,,,0000.19,-000.09,0000.14,16.8,23.5,,00.0,0633.0,31.0
2021-02-17T02:03:00Z,00000200,61000000,,,,,,,-000.31,-000.22,-000.01,16.8,23.5,,00.0,0633.0,31.0
2021-02-17T02:04:00Z,00000200,41000000,0000.58,0000.47,-000.01,0000.42,0000.11,-000.08,-000.19,-000.01,-000.31,16.9,23.3,,00.0,0633.9,31.0
2021-02-17T02:05:00Z,00000200,01000000,-000.54,0000.47,0000.12,0000.00,0000.05,0000.13,-000.14,0000.04,0000.16,16.9,23.2,,00.0,0634.0,31.0
2021-02-17T02:06:00Z,00000200,01000000,0000.24,0000.27,0000.02,0000.48,0000.08,0000.18,0000.16,-000.03,-000.22,16.9,23.2,,00.0,0634.0,31.0
2021-02-17T02:07:00Z,00000200,01000000,0000.63,0000.17,0000.04,0000.22,0000.14,0000.15,-000.41,-000.19,0000.06,16.9,23.2,,00.0,0634.0,31.0
2021-02-17T02:08:00Z,00000200,01000000,0000.45,0000.21,0000.24,0000.47,0000.04,0000.17,0000.30,0000.20,0000.03,16.9,23.2,,00.0,0634.0,31.0
2021-02-17T02:09:00Z,00000200,01000000,0000.27,-000.06,-000.01,0000.27,0000.06,0000.10,0000.06,-000.06,0000.00,16.9,23.2,,00.0,0634.0,31.0
2021-02-17T02:10:00Z,00000200,01000000,0000.49,0000.24,0000.18,0000.17,-000.25,-000.04,0000.02,0000.11,0000.17,16.9,23.2,,00.0,0634.0,31.0
2021-02-17T02:11:00Z,00000200,01000000,-000.04,-000.14,-000.09,-000.09,-000.05,0000.28,0000.08,-000.30,-000.46,16.8,23.2,,00.0,0634.0,31.0
2021-02-17T02:12:00Z,00000200,01000000,0000.78,0000.00,-000.00,0000.41,-000.28,-000.15,-000.41,0000.10,0000.19,16.8,23.2,,00.0,0634.0,31.0
2021-02-17T02:13:00Z,00000200,01000000,0000.51,0000.13,-000.13,0000.30,-000.06,0000.04,0000.12,0000.13,-000.25,16.8,23.1,,00.0,0634.0,31.0
2021-02-17T02:14:00Z,00000200,01000000,0000.65,-000.08,0000.21,0000.14,0000.15,0000.25,0000.17,-000.15,0000.14,16.8,23.1,,00.0,0634.0,31.0
2021-02-17T02:15:00Z,00000200,01000000,0000.15,-000.06,0000.23,0000.63,0000.31,0000.08,-000.21,-000.23,-000.11,16.8,23.1,,00.0,0634.1,31.0
2021-02-17T02:16:00Z,00000200,01000000,-000.59,-000.29,0000.35,-000.19,0000.13,0000.33,-000.02,0000.12,-000.13,16.8,23.1,,00.0,0634.1,31.0
2021-02-17T02:17:00Z,00000200,01000000,0000.05,-000.08,0000.04,-000.07,0000.15,0000.07,-000.11,-000.04,0000.14,16.8,23.1,,00.0,0634.1,31.0
2021-02-17T02:18:00Z,00000200,01000000,-000.20,0000.12,0000.12,0000.43,0000.21,0000.16,-000.11,-000.06,-000.07,16.8,23.1,,00.0,0634.1,31.0
2021-02-17T02:19:00Z,00000200,01000000,0000.62,-000.07,-000.03,0000.41,-000.27,-000.09,-000.27,-000.20,-000.14,16.7,23.1,,00.0,0634.1,31.0
2021-02-17T02:20:00Z,00000200,01000000,0000.95,0000.17,-000.09,0000.42,0000.31,-000.08,0000.22,-000.05,-000.01,16.8,23.0,,00.0,0634.1,31.0
2021-02-17T02:21:00Z,00000200,01000000,0000.06,0000.04,0000.38,-000.16,0000.14,0000.15,-000.23,0000.06,-000.03,16.8,23.0,,00.0,0634.2,31.0
2021-02-17T02:22:00Z,00000200,01000000,0000.02,0000.28,-000.00,0000.53,0000.25,0000.06,-000.24,-000.22,0000.10,16.9,23.1,,00.0,0634.2,31.0
2021-02-17T02:23:00Z,00000200,01000000,-000.24,0000.05,0000.33,0000.41,0000.10,0000.15,-000.18,-000.17,-000.37,17.0,23.1,,00.0,0634.2,31.0
2021-02-17T02:24:00Z,00000200,01000000,-000.01,0000.04,0000.09,0000.20,0000.08,-000.08,-000.00,-000.01,-000.02,17.0,23.1,,00.0,0634.3,31.0
2021-02-17T02:25:00Z,00000200,01000000,-000.07,0000.22,0000.15,0000.54,-000.20,0000.24,-000.22,-000.07,-000.17,17.0,23.1,,00.0,0634.3,31.0
2021-02-17T02:26:00Z,00000200,01000000,0001.00,0000.08,-000.08,0000.15,0000.09,0000.15,-000.12,-000.29,-000.03,17.0,23.1,,00.0,0634.3,31.0
2021-02-17T02:27:00Z,00000200,01000000,0000.01,0000.09,0000.23,0000.07,-000.03,0000.39,-000.13,-000.17,-000.32,16.9,23.1,,00.0,0634.4,31.0
2021-02-17T02:28:00Z,00000200,01000000,0000.20,0000.20,0000.22,0000.28,0000.11,-000.06,-000.24,-000.14,0000.04,16.9,23.1,,00.0,0634.4,31.0
2021-02-17T02:29:00Z,00000200,01000000,0000.10,0000.32,0000.30,0000.59,0000.07,0000.10,-000.15,-000.23,0000.05,16.9,23.1,,00.0,0634.4,31.0
2021-02-17T02:30:00Z,00000200,01000000,0000.11,0000.19,-000.03,0000.36,0000.09,-000.02,-000.23,0000.01,-000.23,16.9,23.1,,00.0,0634.4,31.0
2021-02-17T02:31:00Z,00000200,01000000,0000.04,-000.24,0000.43,0000.79,-000.02,0000.17,0000.01,-000.02,0000.09,16.9,23.1,,00.0,0634.5,31.0
2021-02-17T02:32:00Z,00000200,01000000,0000.08,0000.08,0000.15,0000.01,-000.01,-000.03,-000.13,-000.09,-000.22,16.8,23.1,,00.0,0634.4,31.0
2021-02-17T02:33:00Z,00000200,01000000,-000.18,-000.25,-000.27,0000.06,0000.00,0000.01,0000.08,-000.06,-000.24,16.8,23.1,,00.0,0634.5,31.0
2021-02-17T02:34:00Z,00000200,01000000,0000.74,0000.13,0000.24,0000.41,-000.02,0000.23,-000.24,0000.08,0000.24,16.8,23.1,,00.0,0634.5,31.0
2021-02-17T02:35:00Z,00000200,01000000,0000.03,0000.20,-000.22,0000.31,-000.07,-000.04,0000.12,-000.08,-000.01,16.8,23.1,,00.0,0634.5,31.0
2021-02-17T02:36:00Z,00000200,01000000,0000.26,0000.03,0000.15,-000.14,-000.06,0000.25,0000.05,-000.38,-000.22,16.9,23.1,,00.0,0634.5,31.0
2021-02-17T02:37:00Z,00000200,01000000,0000.12,0000.20,-000.03,0000.34,0000.09,-000.03,-000.50,0000.01,-000.19,17.0,23.1,,00.0,0634.5,31.0
2021-02-17T02:38:00Z,00000200,01000000,-000.04,0000.08,0000.16,-000.00,0000.03,0000.16,0000.12,0000.17,0000.08,17.0,23.1,,00.0,0634.5,31.0
2021-02-17T02:39:00Z,00000200,01000000,0000.63,-000.03,0000.22,-000.14,0000.22,0000.12,-000.02,-000.20,-000.33,17.0,23.2,,00.0,0634.5,31.0
2021-02-17T02:40:00Z,00000200,01000000,-000.30,-000.01,-000.10,0000.51,0000.02,-000.10,-000.34,-000.16,0000.19,17.0,23.2,,00.0,0634.5,31.0
2021-02-17T02:41:00Z,00000200,01000000,0000.13,-000.06,0000.08,-000.01,0000.20,0000.05,0000.17,-000.01,0000.05,17.0,23.2,,00.0,0634.5,31.0
2021-02-17T02:42:00Z,00000200,01000000,0000.53,-000.07,0000.15,-000.46,0000.07,0000.10,0000.11,-000.03,0000.20,17.0,23.2,,00.0,0634.5,31.0
2021-02-17T02:43:00Z,00000200,01000000,0000.29,0000.20,0000.09,0000.46,-000.05,-000.09,0000.06,-000.02,-000.23,16.9,23.2,,00.0,0634.5,31.0
2021-02-17T02:44:00Z,00000200,01000000,0000.39,-000.17,-000.06,0000.14,-000.02,0000.02,0000.10,0000.38,0000.25,16.9,23.1,,00.0,0634.5,31.0
2021-02-17T02:45:00Z,00000200,01000000,0000.62,0000.06,0000.21,0000.80,-000.04,0000.03,0000.11,0000.00,0000.04,16.9,23.1,,00.0,0634.5,31.0
2021-02-17T02:46:00Z,00000200,01000000,0000.35,0000.19,-000.15,0000.18,0000.04,0000.06,-000.36,-000.44,-000.06,16.9,23.1,,00.0,0634.5,31.0
2021-02-17T02:47:00Z,00000200,01000000,0000.10,0000.06,0000.42,-000.19,0000.04,0000.02,-000.00,0000.19,-000.17,16.9,23.1,,00.0,0634.5,31.0
2021-02-17T02:48:00Z,00000200,01000000,0000.00,0000.11,0000.34,0000.21,-000.09,0000.08,0000.02,0000.20,-000.13,16.8,23.1,,00.0,0634.5,31.0
2021-02-17T02:49:00Z,00000200,01000000,0000.45,0000.06,0000.11,0000.13,-000.08,0000.07,-000.18,-000.06,-000.01,16.8,23.1,,00.0,0634.5,31.0
2021-02-17T02:50:00Z,00000200,01000000,-000.24,0000.29,-000.15,0000.22,0000.03,-000.03,0000.19,0000.09,0000.15,16.9,23.1,,00.0,0634.5,31.0
2021-02-17T02:51:00Z,00000200,01000000,0000.60,-000.07,0000.39,0000.06,0000.05,0000.17,0000.15,-000.40,-000.05,16.9,23.1,,00.0,0634.5,31.0
2021-02-17T02:52:00Z,00000200,01000000,-000.38,0000.02,0000.15,-000.01,0000.10,0000.53,-000.24,-000.33,-000.08,16.9,23.1,,00.0,0634.5,31.0
2021-02-17T02:53:00Z,00000200,01000000,0000.92,0000.22,0000.10,-000.05,-000.06,-000.02,0000.14,0000.44,0000.22,17.0,23.1,,00.0,0634.5,31.0
2021-02-17T02:54:00Z,00000200,01000000,-000.01,0000.28,0000.05,-000.23,0000.04,-000.07,-000.06,-000.13,-000.09,17.0,23.1,,00.0,0634.5,31.0
2021-02-17T02:55:00Z,00000200,01000000,0000.48,0000.01,-000.16,0000.09,0000.12,-000.00,-000.13,-000.02,-000.06,16.9,23.1,,00.0,0634.6,31.0
2021-02-17T02:56:00Z,00000200,01000000,-000.14,0000.07,0000.03,0000.16,-000.01,0000.04,0000.08,-000.01,0000.28,16.9,23.1,,00.0,0634.6,31.0
2021-02-17T02:57:00Z,00000200,41000000,,,,,,,0001.06,0001.04,0000.52,16.9,23.2,,00.0,0634.5,31.0
2021-02-17T02:58:00Z,00000200,61000000,,,,,,,-000.50,-000.49,-000.16,16.6,23.2,,00.0,0633.7,31.0
2021-02-17T02:59:00Z,00000200,21000000,,,,,,,-000.35,-000.19,-000.66,16.6,23.3,,00.0,0633.7,31.0
